Location: *
(42.0175°N, 9.4056°E)
Time: 03:11:07
(UTC+00:00)

Cosmos 858 Rocket - Pass Details

Date: 25 August 2019
Orbit: 757 x 774 km, 74.1° (Epoch: 21 October)

Event Time Altitude Azimuth Distance (km) Brightness Sun altitude
Rises 19:36:09 0° 194° (SSW) 3,235 7.6 -15.9°
Reaches altitude 10° 19:38:31 10° 193° (SSW) 2,312 6.8 -16.2°
Maximum altitude 19:43:46 78° 108° (ESE) 794 4.4 -17.1°
Drops below altitude 10° 19:49:03 10° 22° (NNE) 2,326 7.1 -17.9°
Sets 19:51:26 0° 22° (NNE) 3,256 7.9 -18.2°
